"Pseudo-MPEC" for xkos312

Created 2023 Apr 6 6:22:08 UT using Find_Orb

Click here for an explanation of pseudo-MPECs

 
 Astrometry: 
     xkos312*KC2023 04 01VOx[S9%BPV1StTphB_rPvf_BSy./sMfHK!U?5`pkLI?sa#33S/8+L87
     xkos312 KC2023 04 01-lneA\Astrometryhl]w1#2KMWwPQXIl[\hlZwgredacted;Lk)8L87
     xkos312 KC2023 04 01f@ZYclick#WDZDhereo-!G],Y-y:iY\59gZi2c[y];2aLVAp%)LLL87
     xkos312 KC2023 04 01fX_M1Sqj5,]RM=A`[9qK%Cfor'!:,^f3JxrR0LIaU^m]!4C666UaL87
     xkos312 KC2023 04 01a4+B5yNM?;x=h*'nS(/b@#Eu7B2(Xgis!Nexplanation;kMDF9pL87

Station data:
(L87) Moonbase South Observatory, Hakos  (S23.236420 E16.361890)  Namibia.
   Observer G. Duszanowicz. 0.36-m f/7.7 reflector + CCD.

Orbital elements:  xkos312
   Perihelion 2023 Apr 11.07169 +/- 44 TT =  1:43:14 (JD 2460045.57169)
Epoch 2023 Apr  1.0 TT = JDT 2460035.5   Earth MOID: 0.0113      AutoNEOCP
M 350.61574448 +/- 26               (J2000 ecliptic)
n   0.93174561 +/- 0.424            Peri.    7.13611 +/- 70
a   1.03817638 +/- 0.315            Node   193.36805 +/- 48
e   0.0259223 +/- 0.269             Incl.    4.27475 +/- 13
P   1.06/386.36d           H 27.91  G  0.15   U 12.2  SR
q 1.01126440 +/- 0.196    Q 1.06508836 +/- 30.6
From 5 observations 2023 Apr. 1 (17.7 min); mean residual 0".23
Residuals in arcseconds: 
230401 L87  .24-  .20+    230401 L87  .31+  .38-    230401 L87  .29-  .04-    
230401 L87  .08+  .05-    230401 L87  .15+  .27+    

Ephemerides (geocentric):
Date (UTC) HH   RA             Dec           delta  r     elong  mag " sig PA
---- --------  ------------   ------------  ------ ------ -----  --- --------
2023 04 06 06  12 50 26.511   +12 05 11.29  .01137 1.0113 161.6 19.2  51d 167
2023 04 06 07  12 50 56.368   +12 20 18.65  .01138 1.0113 161.3 19.2  51d 167
2023 04 06 08  12 51 26.274   +12 35 25.49  .01138 1.0113 161.0 19.2  51d 167
2023 04 06 09  12 51 56.231   +12 50 31.76  .01138 1.0113 160.8 19.2  51d 167
2023 04 06 10  12 52 26.238   +13 05 37.42  .01138 1.0113 160.5 19.2  51d 167
2023 04 06 11  12 52 56.294   +13 20 42.42  .01138 1.0113 160.3 19.3  51d 167
2023 04 06 12  12 53 26.399   +13 35 46.72  .01139 1.0113 160.0 19.3  51d 167
2023 04 06 13  12 53 56.554   +13 50 50.26  .01139 1.0113 159.8 19.3  51d 167
2023 04 06 14  12 54 26.757   +14 05 53.00  .01139 1.0112 159.5 19.3  51d 167
2023 04 06 15  12 54 57.010   +14 20 54.89  .01140 1.0112 159.2 19.3  51d 167
2023 04 06 16  12 55 27.311   +14 35 55.89  .01140 1.0112 159.0 19.3  51d 167
2023 04 06 17  12 55 57.660   +14 50 55.94  .01140 1.0112 158.7 19.3  51d 167
2023 04 06 18  12 56 28.058   +15 05 55.02  .01141 1.0112 158.5 19.3  51d 167
2023 04 06 19  12 56 58.503   +15 20 53.06  .01141 1.0112 158.2 19.3  51d 167
2023 04 06 20  12 57 28.996   +15 35 50.02  .01142 1.0112 157.9 19.3  51d 167
2023 04 06 21  12 57 59.537   +15 50 45.86  .01142 1.0112 157.7 19.3  51d 167
2023 04 06 22  12 58 30.125   +16 05 40.53  .01143 1.0112 157.4 19.3  51d 167
2023 04 06 23  12 59 00.760   +16 20 33.99  .01143 1.0112 157.1 19.4  51d 167
2023 04 07 00  12 59 31.442   +16 35 26.20  .01144 1.0112 156.9 19.4  51d 167
2023 04 07 01  13 00 02.171   +16 50 17.10  .01145 1.0112 156.6 19.4  51d 167
2023 04 07 02  13 00 32.946   +17 05 06.66  .01145 1.0112 156.4 19.4  51d 167
2023 04 07 03  13 01 03.767   +17 19 54.83  .01146 1.0112 156.1 19.4  51d 167
2023 04 07 04  13 01 34.634   +17 34 41.57  .01146 1.0112 155.8 19.4  51d 167
2023 04 07 05  13 02 05.547   +17 49 26.83  .01147 1.0112 155.6 19.4  51d 167
2023 04 07 06  13 02 36.505   +18 04 10.58  .01148 1.0112 155.3 19.4  51d 167
2023 04 07 07  13 03 07.509   +18 18 52.77  .01149 1.0112 155.0 19.4  51d 167
2023 04 07 08  13 03 38.557   +18 33 33.36  .01149 1.0112 154.8 19.4  51d 167
2023 04 07 09  13 04 09.650   +18 48 12.31  .01150 1.0112 154.5 19.4  51d 167
2023 04 07 10  13 04 40.788   +19 02 49.58  .01151 1.0112 154.3 19.5  51d 167
2023 04 07 11  13 05 11.970   +19 17 25.12  .01152 1.0112 154.0 19.5  51d 167
2023 04 07 12  13 05 43.195   +19 31 58.90  .01153 1.0112 153.7 19.5  51d 167
2023 04 07 13  13 06 14.465   +19 46 30.87  .01154 1.0112 153.5 19.5  51d 167
2023 04 07 14  13 06 45.778   +20 01 01.01  .01155 1.0112 153.2 19.5  51d 167
2023 04 07 15  13 07 17.134   +20 15 29.26  .01156 1.0112 153.0 19.5  51d 167
2023 04 07 16  13 07 48.533   +20 29 55.60  .01157 1.0112 152.7 19.5  51d 166
2023 04 07 17  13 08 19.974   +20 44 19.98  .01158 1.0112 152.4 19.5  51d 166
2023 04 07 18  13 08 51.458   +20 58 42.36  .01159 1.0112 152.2 19.5  51d 166
2023 04 07 19  13 09 22.984   +21 13 02.71  .01160 1.0112 151.9 19.5  51d 166
2023 04 07 20  13 09 54.552   +21 27 21.00  .01161 1.0112 151.7 19.6  51d 166
2023 04 07 21  13 10 26.161   +21 41 37.18  .01162 1.0112 151.4 19.6  51d 166
2023 04 07 22  13 10 57.812   +21 55 51.22  .01163 1.0112 151.2 19.6  51d 166
2023 04 07 23  13 11 29.503   +22 10 03.09  .01164 1.0112 150.9 19.6  51d 166
2023 04 08 00  13 12 01.235   +22 24 12.75  .01166 1.0112 150.6 19.6  51d 166
2023 04 08 01  13 12 33.008   +22 38 20.17  .01167 1.0112 150.4 19.6  51d 166
2023 04 08 02  13 13 04.820   +22 52 25.31  .01168 1.0111 150.1 19.6  51d 166
2023 04 08 03  13 13 36.673   +23 06 28.14  .01169 1.0111 149.9 19.6  51d 166
2023 04 08 04  13 14 08.565   +23 20 28.63  .01171 1.0111 149.6 19.6  51d 166
2023 04 08 05  13 14 40.496   +23 34 26.74  .01172 1.0111 149.4 19.6  51d 166